User: anonymous   Login
Location: Unspecified
(0.0000°N, 0.0000°E)
Time: 10:21:26
(UTC+02:00)
Language:

Helios 1A Rocket - Orbit

View from above orbital plane
View from above orbital plane
View from above satellite
View from above satellite

Ground track
Ground track

The orbit data is extracted from the following two-line orbital elements,

1 23608U 95033D   16207.88628391  .00000637  00000-0  62792-4 0  9996
2 23608  98.2136 118.1716 0015759 249.5069 110.4459 14.95787282138972
Epoch (UTC): 25 July 2016 21:16:14
Eccentricity: 0.0015759
inclination: 98.2136°
perigee height: 569 km
apogee height: 591 km
right ascension of ascending node: 118.1716°
argument of perigee: 249.5069°
revolutions per day: 14.95787282
mean anomaly at epoch: 110.4459°
orbit number at epoch: 13897

The dashed part of the orbit path shows where the satellite is in the earth's shadow,  

DLR